Weather History for Dayton Wright, OH

Change the Weather History Date:

Tuesday, April 30, 2013

  Actual Average (KFFO) Record (KFFO)
Temperature  
Mean Temperature 62 °F -  
Max Temperature 75 °F 67 °F 85 °F (2007)
Min Temperature 48 °F 45 °F 37 °F (2002)
Degree Days  
Heating Degree Days 4    
Growing Degree Days 12 (Base 50)    
Moisture  
Dew Point 52 °F    
Average Humidity 72    
Maximum Humidity 100    
Minimum Humidity 44    
Precipitation  
Precipitation 0.01 in - - ()
Sea Level Pressure  
Sea Level Pressure 30.02 in    
Wind  
Wind Speed 5 mph (SSE)    
Max Wind Speed 10 mph    
Max Gust Speed -    
Visibility 9 miles    
Events      
Averages and records for this station are not official NWS values.
T = Trace of Precipitation, MM = Missing Value Source: NWS Daily Summary

Daily Weather History Graph

Daily Weather History Graph

Search for Another Location

Airport:

Trip Planner

Search our weather history database for the weather conditions in past years. The results will help you decide how hot, cold, wet, or windy it might be!

Date:

Astronomy

Apr. 30, 2013 Rise Set
Actual Time 6:38 AM EDT 8:30 PM EDT
Civil Twilight 6:09 AM EDT 8:59 PM EDT
Nautical Twilight 5:34 AM EDT 9:34 PM EDT
Astronomical Twilight 4:56 AM EDT 10:12 PM EDT
Moon 12:52 AM EDT (4/30) 11:06 AM EDT (4/30)
Length of Visible Light 14h 49m
Length of Day
13h 51m
Waning Gibbous, 70% of the Moon is Illuminated
Apr 30
Waning Gibbous
May 2
Last Quarter
May 9
New
May 18
First Quarter
May 25
Full

Hourly Weather History & Observations

Time (EDT) Temp. Dew Point Humidity Pressure Visibility Wind Dir Wind Speed Gust Speed Precip Events Conditions
12:53 AM 53.1 °F 51.1 °F 93% 29.98 in 7.0 mi SSE 3.5 mph - N/A   Clear
1:53 AM 53.1 °F 52.0 °F 96% 29.98 in 5.0 mi Calm Calm - N/A   Clear
2:53 AM 52.0 °F 51.1 °F 97% 29.98 in 6.0 mi SSE 4.6 mph - 0.01 in   Clear
3:53 AM 51.1 °F 51.1 °F 100% 29.99 in 6.0 mi SSE 3.5 mph - N/A   Clear
4:53 AM 51.1 °F 51.1 °F 100% 29.99 in 7.0 mi SE 3.5 mph - N/A   Clear
5:53 AM 48.9 °F 48.9 °F 100% 30.00 in 5.0 mi ESE 3.5 mph - N/A   Clear
6:53 AM 48.9 °F 48.9 °F 100% 30.01 in 4.0 mi SE 3.5 mph - N/A   Clear
7:53 AM 53.1 °F 53.1 °F 100% 30.04 in 10.0 mi SSE 5.8 mph - N/A   Clear
8:53 AM 57.0 °F 54.0 °F 89% 30.04 in 10.0 mi SSE 8.1 mph - N/A   Clear
9:53 AM 60.1 °F 54.0 °F 80% 30.04 in 10.0 mi South 9.2 mph - N/A   Clear
10:53 AM 63.0 °F 53.1 °F 70% 30.05 in 10.0 mi SSW 6.9 mph - N/A   Clear
11:53 AM 66.0 °F 53.1 °F 63% 30.05 in 10.0 mi SSW 9.2 mph - N/A   Clear
12:53 PM 69.1 °F 53.1 °F 57% 30.04 in 10.0 mi SW 5.8 mph - N/A   Clear
1:53 PM 71.1 °F 54.0 °F 55% 30.04 in 10.0 mi ESE 4.6 mph - N/A   Clear
2:53 PM 73.0 °F 54.0 °F 51% 30.02 in 10.0 mi SE 5.8 mph - N/A   Clear
3:53 PM 73.9 °F 55.0 °F 52% 30.01 in 10.0 mi South 8.1 mph - N/A   Clear
4:53 PM 75.0 °F 52.0 °F 44% 30.00 in 10.0 mi SE 6.9 mph - N/A   Clear
5:53 PM 75.0 °F 53.1 °F 46% 30.00 in 10.0 mi SSE 9.2 mph - N/A   Clear
6:53 PM 73.9 °F 52.0 °F 46% 30.01 in 10.0 mi SE 10.4 mph - N/A   Clear
7:53 PM 72.0 °F 51.1 °F 48% 30.03 in 10.0 mi SE 6.9 mph - N/A   Clear
8:53 PM 69.1 °F 51.1 °F 53% 30.04 in 10.0 mi ESE 3.5 mph - N/A   Clear
9:53 PM 66.9 °F 51.1 °F 57% 30.06 in 10.0 mi ESE 4.6 mph - N/A   Clear
11:53 PM 62.1 °F 52.0 °F 70% 30.06 in 10.0 mi ESE 5.8 mph - N/A   Clear